VIA003 SVSR-SVPA

Flight info

Callsign VIA003
Flight time N/A
Altitude 20000
Route SFD W17 PTC DCT PAY
Aircraft B738/M-SDE2E3FGHIRWXY/LB1

Departure

Time N/A
Airport San Fernando de Apure Las Flecheras National Airport (SVSR)

Arrival

Time 2026-05-06 14:47
Airport Cacique Aramare Airport (SVPA)
Time Latitude Longitude Altitude Speed Heading
2026-05-06 14:26 7.32067 -67.47961 19885 ft 386 kts 185°
2026-05-06 14:26 7.29353 -67.48207 19957 ft 383 kts 184°
2026-05-06 14:26 7.26686 -67.48418 19974 ft 381 kts 184°
2026-05-06 14:26 7.24015 -67.48615 19977 ft 381 kts 183°
2026-05-06 14:27 7.21373 -67.48806 19976 ft 381 kts 183°
2026-05-06 14:27 7.18681 -67.49000 19976 ft 381 kts 183°
2026-05-06 14:27 7.16024 -67.49195 19975 ft 382 kts 183°
2026-05-06 14:27 7.13356 -67.49393 19976 ft 382 kts 183°
2026-05-06 14:28 7.10698 -67.49590 19976 ft 381 kts 184°
2026-05-06 14:28 7.08035 -67.49790 19975 ft 381 kts 183°
2026-05-06 14:28 7.05331 -67.49995 19975 ft 382 kts 183°
2026-05-06 14:28 7.02695 -67.50193 19973 ft 381 kts 183°
2026-05-06 14:29 7.00040 -67.50394 19975 ft 381 kts 183°
2026-05-06 14:29 6.97350 -67.50597 19976 ft 381 kts 183°
2026-05-06 14:29 6.94680 -67.50799 19973 ft 381 kts 183°
2026-05-06 14:29 6.92022 -67.50999 19976 ft 382 kts 183°
2026-05-06 14:30 6.89345 -67.51201 19977 ft 382 kts 184°
2026-05-06 14:30 6.86661 -67.51404 19979 ft 381 kts 183°
2026-05-06 14:30 6.83990 -67.51605 19980 ft 382 kts 184°
2026-05-06 14:30 6.81312 -67.51807 19981 ft 382 kts 183°
2026-05-06 14:31 6.78629 -67.52010 19981 ft 382 kts 183°
2026-05-06 14:31 6.75982 -67.52210 19982 ft 381 kts 183°
2026-05-06 14:31 6.73293 -67.52413 19984 ft 382 kts 183°
2026-05-06 14:31 6.70623 -67.52615 19983 ft 382 kts 183°
2026-05-06 14:32 6.67978 -67.52814 19983 ft 381 kts 183°
2026-05-06 14:32 6.65318 -67.53015 19982 ft 381 kts 183°
2026-05-06 14:32 6.62654 -67.53216 19979 ft 381 kts 183°
2026-05-06 14:32 6.59962 -67.53419 19981 ft 381 kts 183°
2026-05-06 14:33 6.57326 -67.53618 19981 ft 382 kts 183°
2026-05-06 14:33 6.54649 -67.53820 19976 ft 381 kts 183°
2026-05-06 14:33 6.51983 -67.54022 19773 ft 385 kts 183°
2026-05-06 14:33 6.49285 -67.54226 19309 ft 384 kts 183°
2026-05-06 14:34 6.46613 -67.54428 18828 ft 381 kts 182°
2026-05-06 14:34 6.43973 -67.54628 18360 ft 378 kts 182°
2026-05-06 14:34 6.41347 -67.54826 17885 ft 375 kts 182°
2026-05-06 14:34 6.38739 -67.55024 17411 ft 372 kts 182°
2026-05-06 14:35 6.36162 -67.55218 16952 ft 370 kts 181°
2026-05-06 14:35 6.33609 -67.55409 16481 ft 367 kts 181°
2026-05-06 14:35 6.31048 -67.55602 16015 ft 364 kts 181°
2026-05-06 14:35 6.28524 -67.55792 15550 ft 362 kts 181°
2026-05-06 14:36 6.26821 -67.55920 15237 ft 360 kts 181°
2026-05-06 14:36 6.23508 -67.56171 14612 ft 356 kts 181°
2026-05-06 14:36 6.21028 -67.56366 14139 ft 354 kts 181°
2026-05-06 14:36 6.18566 -67.56561 13666 ft 351 kts 181°
2026-05-06 14:37 6.16111 -67.56757 13186 ft 349 kts 181°
2026-05-06 14:37 6.13709 -67.56947 12717 ft 346 kts 181°
2026-05-06 14:37 6.11286 -67.57137 12244 ft 344 kts 181°
2026-05-06 14:37 6.08909 -67.57324 11769 ft 341 kts 181°
2026-05-06 14:38 6.07347 -67.57447 11426 ft 335 kts 181°
2026-05-06 14:38 6.05053 -67.57629 10955 ft 323 kts 181°
2026-05-06 14:38 6.02106 -67.57863 10308 ft 310 kts 181°
2026-05-06 14:38 5.99975 -67.58031 9830 ft 302 kts 182°
2026-05-06 14:39 5.97891 -67.58194 9359 ft 295 kts 182°
2026-05-06 14:39 5.97210 -67.58247 9202 ft 292 kts 182°
2026-05-06 14:39 5.93874 -67.58509 8404 ft 283 kts 182°
2026-05-06 14:39 5.91896 -67.58662 7829 ft 282 kts 182°
2026-05-06 14:40 5.89944 -67.58814 7242 ft 282 kts 182°
2026-05-06 14:40 5.87966 -67.58969 6686 ft 279 kts 182°
2026-05-06 14:40 5.86031 -67.59122 6210 ft 274 kts 182°
2026-05-06 14:40 5.84143 -67.59270 5740 ft 270 kts 182°
2026-05-06 14:41 5.82273 -67.59417 5269 ft 266 kts 182°
2026-05-06 14:41 5.80430 -67.59562 4803 ft 263 kts 183°
2026-05-06 14:41 5.78627 -67.59702 4337 ft 260 kts 183°
2026-05-06 14:41 5.76823 -67.59844 3863 ft 258 kts 183°
2026-05-06 14:42 5.75046 -67.60200 3385 ft 260 kts 202°
2026-05-06 14:42 5.73442 -67.61009 3025 ft 253 kts 209°
2026-05-06 14:42 5.71918 -67.61898 2721 ft 250 kts 210°
2026-05-06 14:42 5.70416 -67.62791 2382 ft 247 kts 210°
2026-05-06 14:43 5.68982 -67.63644 2335 ft 227 kts 210°
2026-05-06 14:43 5.67687 -67.64417 2342 ft 206 kts 210°
2026-05-06 14:43 5.66497 -67.65130 2336 ft 188 kts 210°
2026-05-06 14:43 5.65402 -67.65790 2334 ft 178 kts 210°
2026-05-06 14:44 5.64351 -67.66426 2336 ft 176 kts 210°
2026-05-06 14:44 5.63312 -67.67056 2371 ft 176 kts 210°
2026-05-06 14:44 5.62251 -67.67687 2338 ft 174 kts 205°
2026-05-06 14:45 5.60220 -67.67028 2277 ft 170 kts 119°
2026-05-06 14:45 5.59624 -67.65991 2100 ft 168 kts 120°
2026-05-06 14:45 5.59023 -67.65023 1884 ft 165 kts 121°
2026-05-06 14:45 5.58428 -67.64024 1486 ft 165 kts 108°
2026-05-06 14:46 5.58453 -67.62948 1167 ft 156 kts 59°
2026-05-06 14:46 5.59272 -67.62229 665 ft 158 kts 29°
2026-05-06 14:46 5.60184 -67.61695 424 ft 147 kts 31°
2026-05-06 14:46 5.61064 -67.61166 297 ft 145 kts 31°
2026-05-06 14:47 5.61907 -67.60664 283 ft 124 kts 30°
2026-05-06 14:47 5.62415 -67.60368 281 ft 39 kts 30°
2026-05-06 14:47 5.62543 -67.60291 280 ft 15 kts 21°
2026-05-06 14:47 5.62607 -67.60335 280 ft 6 kts 317°
2026-05-06 14:48 5.62655 -67.60332 280 ft 6 kts
2026-05-06 14:48 5.62696 -67.60346 280 ft 5 kts 326°
2026-05-06 14:48 5.62705 -67.60353 280 ft 0 kts 324°